Location: Unspecified
(0.0000°N, 0.0000°E)
Time: 08:39:39
(UTC+00:00)

ISS - Visible Passes

Search period start: 13 May 2021 00:00
Search period end: 23 May 2021 00:00
Orbit: 417 x 422 km, 51.6° (Epoch: 13 May)

Date Brightness Start Highest point End Pass type
(mag) Time Alt. Az. Time Alt. Az. Time Alt. Az.
14 May -0.6 19:04:01 10° W 19:06:20 18° NW 19:08:40 10° N visible
17 May -2.7 05:04:33 10° NNW 05:07:49 49° NE 05:11:06 10° SE visible
18 May -1.1 04:17:47 10° N 04:20:25 21° NE 04:23:04 10° ESE visible
19 May -2.7 05:07:08 12° WNW 05:09:37 26° SW 05:12:29 10° S visible
20 May -1.2 04:25:03 14° SSE 04:25:03 14° SSE 04:25:34 10° SSE visible
